Showing default

SKYSAT C8, 42990

Orbit data source: Space-Track

SKYSAT C8, 42990 is a payload satellite owned by Terra Bella (US) in SSO that was launched on Tue, 31 Oct 2017 UTC via a MINOTAUR-C 3210 launch vehicle from the Air Force Western Test Range (AFWTR). Payload-class satellites include a variety of spacecraft equipped with specific instruments for various scientific and technological missions. These include communications satellites like Starlink; space stations such as the ISS; scientific satellites like the Hubble; Earth observation satellites from companies like Planet Labs, Umbra, and HawkEye 360; GPS; miniature CubeSats for education and research; and military/defense satellites.

Loading next visibility...
Identifier
42990, 2017-068D
Orbit
SSO
Country
Flag of USUS
Related business
Manufacturer
Maxar SSL
Mission
Operational Commercial Imaging
Bus & Motor
SKYSAT-GEN2, Unknown motor
Mass
110 kg wet, 110 kg dry
Launch date (UTC)
2017-10-31 (9 years ago)
Launch vehicle
MINOTAUR-C 3210
Launch site
Air Force Western Test Range (AFWTR)
Object type
Payload
Rocket body
Debris
Shape & HBR
Box, 1.0 m
Radar Cross Section
0.888 m², Medium (>0.1 m² and < 1m²)

Expand to show TLE details & history
Last TLE update: 10 hours ago

TLE from 10 hours ago
0 SKYSAT C8
1 42990U 17068D   26124.82583951  .00011218  00000-0  32095-3 0  9997
2 42990  97.4465 260.9302 0001298 110.4726 249.6657 15.36128646475652
Epoch: 2026-05-04T19:49Z
TLE epoch observation values (Epoch: 2026-05-04T19:49:12.533Z)
Latitude
-0.00005°
Longitude
100.91851°
Altitude
460.99 km
Speed
7.636 km/s
True Right ascension
17h 23m 43s
True Declination
0° 00' 00"
Sunlit
Object was in full shadow at epoch
Visualization orbit readout
Latitude
Unknown
Longitude
Unknown
Altitude
Unknown
Speed
Unknown
Apparent Right ascension
Unknown
Apparent Declination
Unknown
Sunlit
N/A
Visualization observer readout
Local Sidereal Time
14:07:49
Azimuth
Unknown
Elevation
Unknown
Doppler factor
Unknown
Orbital elements
Apogee altitude
455.403 km
Perigee altitude
453.629 km
Semi-major axis
6,832.653 km
Eccentricity
0.00013
Inclination
97.4465°
RAAN
260.9302°
Arg. of periapsis
110.4726°
True anomaly
249.65175°
Mean anomaly
249.6657°
Eccentric anomaly
249.65873°
Mean motion
3.8429 °/min
Orbital period
93.68 mins
BSTAR
0.00032095
Loading maneuver chart data...
Computing Atmospheric mass density...
Loading historical data...
Loading historical data...
Loading historical data...
Loading historical data...
Loading historical data...
Loading historical data...
Loading historical data...

Documentation

Showing up to 5 results
|